CW4778 Auckland NZ current weather conditions

sailwx.info

Wind from 053

Air temperature 8.9° C
Dewpoint 7.2° C

Last reported at 2014-Jul-28 07:48 UTC.
Time now 2014-Jul-28 08:25 UTC

Location: S 36°52' E 174°44'.
View on Google Maps.

See reports from other nearby stations

  
Tides and Currents Weather Stations Pressure Air Temp Water Temp Dewpoint Dewpoint Depression Visibility Wind Speed Wind Dir Waves Ship Positions
date/time (UTC)wind fromknots sea level pressurealtimeterstation pressurevisibilityair tempwater tempwave heightnotes
2014-Jul-28 07:48 053 8.9
2014-Jul-28 07:38 052 8.3
2014-Jul-28 07:28 050 8.3
2014-Jul-28 07:18 044 8.3
2014-Jul-28 07:08 045 8.3
2014-Jul-28 06:58 045 8.3
2014-Jul-28 06:48 045 8.9
2014-Jul-28 06:38 044 8.9
2014-Jul-28 06:28 020 9.4
2014-Jul-28 06:18 022 8.9
2014-Jul-28 06:08 022 8.9
2014-Jul-28 05:58 021 8.9
2014-Jul-28 05:48 022 10.0
2014-Jul-28 05:38 023 10.6
2014-Jul-28 05:28 022 10.6
2014-Jul-28 05:18 015 0 gusting 1 11.1
2014-Jul-28 05:08 049 0 gusting 2 11.1
2014-Jul-28 04:58 062 1 gusting 5 11.1
2014-Jul-28 04:48 033 1 gusting 5 11.7
2014-Jul-28 04:38 048 0 gusting 4 11.7
2014-Jul-28 04:28 054 2 gusting 5 11.7
2014-Jul-28 04:18 030 4 gusting 8 12.2
2014-Jul-28 04:08 061 1 gusting 2 12.2
2014-Jul-28 03:58 059 1 gusting 5 12.2
2014-Jul-28 03:48 038 1 gusting 8 12.2
2014-Jul-28 03:38 046 2 gusting 7 12.2
2014-Jul-28 03:28 075 3 gusting 6 12.2
2014-Jul-28 03:18 055 2 gusting 7 12.8
2014-Jul-28 03:08 031 2 gusting 7 12.8
2014-Jul-28 02:58 015 3 gusting 8 12.8
2014-Jul-28 02:48 024 4 gusting 10 12.8
2014-Jul-28 02:38 040 3 gusting 8 12.8
2014-Jul-28 02:28 005 1 gusting 10 13.3
2014-Jul-28 02:18 033 2 gusting 6 13.3
2014-Jul-28 02:08 055 2 gusting 7 13.3
2014-Jul-28 01:58 031 2 gusting 7 13.3
2014-Jul-28 01:48 13.3
2014-Jul-28 01:38 044 2 gusting 8 13.9
2014-Jul-28 01:28 064 2 gusting 6 13.3
2014-Jul-28 01:18 071 1 gusting 6 13.9
2014-Jul-28 01:08 018 4 gusting 7 13.9
2014-Jul-28 00:58 092 1 gusting 7 13.9
2014-Jul-28 00:48 032 1 gusting 7 13.9
2014-Jul-28 00:38 061 4 gusting 6 13.3
2014-Jul-28 00:28 079 1 gusting 6 13.9
2014-Jul-28 00:18 045 4 gusting 6 13.9
2014-Jul-28 00:08 030 1 gusting 7 13.9
2014-Jul-27 23:58 085 1 gusting 7 13.9
2014-Jul-27 23:48 065 0 gusting 6 13.9
2014-Jul-27 23:38 064 2 gusting 7 13.3
2014-Jul-27 23:28 068 13.9
2014-Jul-27 23:18 355 0 gusting 4 13.9
2014-Jul-27 23:08 025 13.3
2014-Jul-27 22:58 015 13.3
2014-Jul-27 22:48 015 13.3
2014-Jul-27 22:38 006 0 gusting 2 12.8
2014-Jul-27 22:28 114 12.8
2014-Jul-27 22:18 183 12.8
2014-Jul-27 22:08 182 12.2
2014-Jul-27 21:58 183 11.7
2014-Jul-27 21:48 178 11.1
2014-Jul-27 21:38 176 0 gusting 5 10.6
2014-Jul-27 21:28 176 10.0
2014-Jul-27 21:18 191 9.4
2014-Jul-27 21:08 213 8.3
2014-Jul-27 20:58 213 7.2
2014-Jul-27 20:48 213 6.1
2014-Jul-27 20:38 227 5.6
2014-Jul-27 20:28 226 5.0
2014-Jul-27 20:18 266 2 gusting 4 4.4
2014-Jul-27 20:08 178 2 gusting 6 4.4
2014-Jul-27 19:58 169 2 gusting 8 4.4
2014-Jul-27 19:48 155 2 gusting 6 3.9
2014-Jul-27 19:38 176 0 gusting 6 3.9
2014-Jul-27 19:28 163 3.3
2014-Jul-27 19:18 199 0 gusting 1 3.3
2014-Jul-27 19:08 227 2.8
2014-Jul-27 18:58 249 2.2
2014-Jul-27 18:48 254 2.8
2014-Jul-27 18:38 254 3.3
2014-Jul-27 18:28 254 2.8
2014-Jul-27 18:18 255 2.2
2014-Jul-27 18:08 254 2.2
2014-Jul-27 17:58 255 2.2
2014-Jul-27 17:48 207 2.2
2014-Jul-27 17:38 208 2.8
2014-Jul-27 17:28 207 2.8
2014-Jul-27 17:18 208 2.8
2014-Jul-27 17:08 207 2.8
2014-Jul-27 16:58 207 3.3
2014-Jul-27 16:48 207 3.3
2014-Jul-27 16:38 207 3.3
2014-Jul-27 16:28 207 0 gusting 2 3.3
2014-Jul-27 16:18 262 2.8
2014-Jul-27 16:08 261 2.8
2014-Jul-27 15:58 262 3.3
2014-Jul-27 15:48 261 0 gusting 4 3.3
2014-Jul-27 15:38 283 3.3
2014-Jul-27 15:28 286 3.3
2014-Jul-27 15:18 288 3.3
2014-Jul-27 15:08 284 3.3
2014-Jul-27 14:58 283 3.3
2014-Jul-27 14:48 284 3.9
2014-Jul-27 14:38 285 4.4
2014-Jul-27 14:28 284 4.4
2014-Jul-27 14:18 282 3.9
2014-Jul-27 14:08 282 4.4
2014-Jul-27 13:58 285 5.0
2014-Jul-27 13:48 342 5.0
2014-Jul-27 13:38 340 5.0
2014-Jul-27 13:28 320 4.4
2014-Jul-27 13:18 341 4.4
2014-Jul-27 13:08 320 4.4
2014-Jul-27 12:58 319 4.4
2014-Jul-27 12:48 322 4.4
2014-Jul-27 12:38 322 4.4
2014-Jul-27 12:28 319 5.0
2014-Jul-27 12:18 324 4.4
2014-Jul-27 12:08 320 4.4
2014-Jul-27 11:58 319 4.4
2014-Jul-27 11:48 319 4.4
2014-Jul-27 11:38 339 5.0
2014-Jul-27 11:28 265 5.6
2014-Jul-27 11:18 262 6.1
2014-Jul-27 11:08 269 6.1
2014-Jul-27 10:58 272 5.6
2014-Jul-27 10:48 271 5.0
2014-Jul-27 10:38 272 5.6
2014-Jul-27 10:28 276 5.6
2014-Jul-27 10:18 272 6.1
2014-Jul-27 10:08 316 6.1
2014-Jul-27 09:58 273 6.1
2014-Jul-27 09:48 273 5.6
2014-Jul-27 09:38 272 6.1
2014-Jul-27 09:28 276 5.6
2014-Jul-27 09:18 270 5.6
2014-Jul-27 09:08 271 6.1
2014-Jul-27 08:58 272 6.1
2014-Jul-27 08:48 274 6.1
2014-Jul-27 08:38 272 6.1
2014-Jul-27 08:28 272 6.7
2014-Jul-27 08:18 276 6.7
2014-Jul-27 08:08 271 6.7
2014-Jul-27 07:58 273 6.7
2014-Jul-27 07:48 273 6.7
2014-Jul-27 07:38 274 6.7
2014-Jul-27 07:28 273 7.2
2014-Jul-27 07:18 275 7.2
2014-Jul-27 07:08 274 7.2
2014-Jul-27 06:58 274 7.8
2014-Jul-27 06:48 271 7.8
2014-Jul-27 06:38 273 7.8
2014-Jul-27 06:28 273 7.8
2014-Jul-27 06:18 273 8.3
2014-Jul-27 06:08 276 8.3
2014-Jul-27 05:58 272 8.9
2014-Jul-27 05:48 277 8.3
2014-Jul-27 05:38 316 8.9
2014-Jul-27 05:28 273 8.9
2014-Jul-27 05:18 276 9.4
2014-Jul-27 05:08 273 10.0
2014-Jul-27 04:58 275 10.0
2014-Jul-27 04:48 273 10.0
2014-Jul-27 04:38 272 10.6
2014-Jul-27 04:28 263 10.6
2014-Jul-27 04:18 252 11.1
2014-Jul-27 04:08 202 10.6
2014-Jul-27 03:58 204 10.6
2014-Jul-27 03:48 225 5 gusting 7 10.6
2014-Jul-27 03:38 190 2 gusting 7 10.6
2014-Jul-27 03:28 170 4 gusting 11 10.6
2014-Jul-27 03:18 195 7 gusting 13 11.7
2014-Jul-27 03:08 177 7 gusting 18 12.2
2014-Jul-27 02:58 178 8 gusting 17 13.3
2014-Jul-27 02:48 185 7 gusting 13 12.8
2014-Jul-27 02:38 191 4 gusting 11 13.3
2014-Jul-27 02:28 178 5 gusting 11 12.8
2014-Jul-27 02:18 184 3 gusting 11 12.8
2014-Jul-27 02:08 211 3 gusting 8 12.8
2014-Jul-27 01:58 190 4 gusting 13 12.2
2014-Jul-27 01:48 209 5 gusting 12 12.2
2014-Jul-27 01:38 206 5 gusting 10 11.7
2014-Jul-27 01:28 218 5 gusting 17 11.7
2014-Jul-27 01:18 193 7 gusting 12 12.8
2014-Jul-27 01:08 180 10 gusting 13 13.3
2014-Jul-27 00:58 236 6 gusting 11 13.3
2014-Jul-27 00:48 194 4 gusting 11 14.4
2014-Jul-27 00:38 197 4 gusting 13 13.9
2014-Jul-27 00:28 192 3 gusting 12 15.0
2014-Jul-27 00:18 201 6 gusting 8 15.6
2014-Jul-27 00:08 199 4 gusting 10 16.1
2014-Jul-26 23:58 195 4 gusting 11 16.1
2014-Jul-26 23:48 192 6 gusting 12 15.6
2014-Jul-26 23:38 185 6 gusting 12 15.0
2014-Jul-26 23:28 204 4 gusting 12 15.0
2014-Jul-26 23:18 166 6 gusting 11 14.4
2014-Jul-26 23:08 177 7 gusting 13 15.0
2014-Jul-26 22:58 222 2 gusting 12 15.0
2014-Jul-26 22:48 187 2 gusting 12 15.0
2014-Jul-26 22:38 200 6 gusting 12 13.3
2014-Jul-26 22:28 194 4 gusting 11 13.3
2014-Jul-26 22:18 186 5 gusting 11 13.9
2014-Jul-26 22:08 174 5 gusting 12 13.3
2014-Jul-26 21:58 215 6 gusting 11 13.9
2014-Jul-26 21:48 339 0 gusting 6 13.9
2014-Jul-26 21:38 290 1 gusting 6 13.9
2014-Jul-26 21:28 309 11.7
2014-Jul-26 21:18 232 12.2
2014-Jul-26 21:08 252 0 gusting 4 11.1
2014-Jul-26 20:58 271 0 gusting 5 11.1
2014-Jul-26 20:48 236 1 gusting 4 10.6
2014-Jul-26 20:38 218 10.6
2014-Jul-26 20:28 213 2 gusting 6 9.4
2014-Jul-26 20:18 202 2 gusting 6 9.4
2014-Jul-26 20:08 199 2 gusting 6 8.9
2014-Jul-26 19:58 197 1 gusting 6 8.9
2014-Jul-26 19:48 211 2 gusting 6 8.3
2014-Jul-26 19:38 187 7.8
2014-Jul-26 19:28 230 7.2
2014-Jul-26 19:18 229 7.8
2014-Jul-26 19:08 230 7.8
2014-Jul-26 18:58 228 8.3
2014-Jul-26 18:48 218 1 gusting 5 8.3
2014-Jul-26 18:38 241 7.8
2014-Jul-26 18:28 208 7.8
2014-Jul-26 18:18 209 0 gusting 4 8.3
2014-Jul-26 18:08 211 2 gusting 6 8.3
2014-Jul-26 17:58 208 2 gusting 5 7.8
2014-Jul-26 17:48 234 7.8
2014-Jul-26 17:38 235 7.2
2014-Jul-26 17:28 173 7.2
2014-Jul-26 17:18 287 6.7
2014-Jul-26 17:08 289 6.7
2014-Jul-26 16:58 248 0 gusting 4 6.1
2014-Jul-26 16:48 258 6.7
2014-Jul-26 16:38 260 6.1
2014-Jul-26 16:28 270 6.1
2014-Jul-26 16:18 269 6.1
2014-Jul-26 16:08 269 6.1
2014-Jul-26 15:58 269 6.7
2014-Jul-26 15:48 270 6.7
2014-Jul-26 15:38 140 6.7
2014-Jul-26 15:28 298 6.7
2014-Jul-26 15:18 299 6.7
2014-Jul-26 15:08 296 6.7
2014-Jul-26 14:58 299 6.7
2014-Jul-26 14:48 296 7.2
2014-Jul-26 14:38 296 7.2
2014-Jul-26 14:28 299 7.8
2014-Jul-26 14:18 291 7.8
2014-Jul-26 14:08 251 7.2
2014-Jul-26 13:58 250 7.2
2014-Jul-26 13:48 314 7.8
2014-Jul-26 13:38 308 7.8
2014-Jul-26 13:28 291 7.8
2014-Jul-26 13:18 291 7.8
2014-Jul-26 13:08 293 7.8
2014-Jul-26 12:58 326 8.3
2014-Jul-26 12:48 287 8.3
2014-Jul-26 12:38 253 8.3
2014-Jul-26 12:28 294 8.9
2014-Jul-26 12:18 9.4
2014-Jul-26 12:08 295 0 gusting 2 9.4
2014-Jul-26 11:58 275 1 gusting 6 10.0
2014-Jul-26 11:48 261 0 gusting 6 10.0
2014-Jul-26 11:38 203 1 gusting 2 9.4
2014-Jul-26 11:28 294 9.4
2014-Jul-26 11:18 268 10.0
2014-Jul-26 11:08 302 0 gusting 6 10.0
2014-Jul-26 10:58 246 3 gusting 14 10.6
2014-Jul-26 10:48 177 4 gusting 13 10.6
2014-Jul-26 10:38 230 5 gusting 8 10.0
2014-Jul-26 10:28 203 2 gusting 10 10.0
2014-Jul-26 10:18 208 4 gusting 8 10.6
2014-Jul-26 10:08 208 4 gusting 11 10.6
2014-Jul-26 09:58 210 6 gusting 12 10.6
2014-Jul-26 09:48 222 3 gusting 12 10.0
2014-Jul-26 09:38 264 10.0
2014-Jul-26 09:28 238 2 gusting 11 10.6
2014-Jul-26 09:18 255 4 gusting 11 10.6
2014-Jul-26 09:08 269 4 gusting 11 10.6
2014-Jul-26 08:58 189 5 gusting 11 10.0
2014-Jul-26 08:48 222 0 gusting 4 10.0
2014-Jul-26 08:38 319 1 gusting 5 9.4
2014-Jul-26 08:28 253 2 gusting 6 9.4
2014-Jul-26 08:18 231 0 gusting 2 8.9
2014-Jul-26 08:08 283 0 gusting 1 8.9